Time,TemperatureF,DewpointF,PressureIn,WindDirection,WindDirectionDegrees,WindSpeedMPH,WindSpeedGustMPH,Humidity,HourlyPrecipIn,Conditions,Clouds,dailyrainin,SoftwareType,DateUTC
2013-01-11 01:00:00,55.0,-99.9,-100.00,ENE,70,11.0,-999.0,-999,-99.99,,,-99.99,,2013-01-11 06:00:00,
2013-01-11 01:42:00,55.0,-99.9,-100.00,ENE,70,11.0,-999.0,-999,-99.99,,,-99.99,,2013-01-11 06:42:00,
2013-01-11 01:52:00,55.0,-99.9,-100.00,ENE,70,11.0,-999.0,-999,-99.99,,,-99.99,,2013-01-11 06:52:00,
2013-01-11 02:00:00,55.0,-99.9,-100.00,East,90,11.0,-999.0,-999,-99.99,,,-99.99,,2013-01-11 07:00:00,
2013-01-11 02:42:00,55.0,-99.9,-100.00,East,90,11.0,-999.0,-999,-99.99,,,-99.99,,2013-01-11 07:42:00,
2013-01-11 02:53:00,55.0,-99.9,-100.00,East,90,11.0,-999.0,-999,-99.99,,,-99.99,,2013-01-11 07:53:00,
2013-01-11 03:00:00,55.0,-99.9,-100.00,ENE,70,7.0,-999.0,-999,-99.99,,,-99.99,,2013-01-11 08:00:00,
2013-01-11 03:42:00,55.0,-99.9,-100.00,ENE,70,7.0,-999.0,-999,-99.99,,,-99.99,,2013-01-11 08:42:00,
2013-01-11 03:53:00,55.0,-99.9,-100.00,ENE,70,7.0,-999.0,-999,-99.99,,,-99.99,,2013-01-11 08:53:00,
2013-01-11 04:00:00,55.0,-99.9,-100.00,East,80,9.0,-999.0,-999,-99.99,,,-99.99,,2013-01-11 09:00:00,
2013-01-11 04:43:00,55.0,-99.9,-100.00,East,80,9.0,-999.0,-999,-99.99,,,-99.99,,2013-01-11 09:43:00,
2013-01-11 04:53:00,55.0,-99.9,-100.00,East,80,9.0,-999.0,-999,-99.99,,,-99.99,,2013-01-11 09:53:00,
2013-01-11 07:00:00,54.0,-99.9,-100.00,ENE,60,4.0,-999.0,-999,-99.99,,,-99.99,,2013-01-11 12:00:00,
2013-01-11 07:43:00,54.0,-99.9,-100.00,ENE,60,4.0,-999.0,-999,-99.99,,,-99.99,,2013-01-11 12:43:00,
2013-01-11 07:53:00,54.0,-99.9,-100.00,ENE,60,4.0,-999.0,-999,-99.99,,,-99.99,,2013-01-11 12:53:00,
2013-01-11 08:00:00,55.0,-99.9,-100.00,NNE,30,4.0,-999.0,-999,-99.99,,,-99.99,,2013-01-11 13:00:00,
2013-01-11 08:43:00,55.0,-99.9,-100.00,NNE,30,4.0,-999.0,-999,-99.99,,,-99.99,,2013-01-11 13:43:00,
2013-01-11 08:53:00,55.0,-99.9,-100.00,NNE,30,4.0,-999.0,-999,-99.99,,,-99.99,,2013-01-11 13:53:00,
2013-01-11 09:00:00,57.0,-99.9,-100.00,East,80,4.0,-999.0,-999,-99.99,,,-99.99,,2013-01-11 14:00:00,
2013-01-11 09:43:00,57.0,-99.9,-100.00,East,80,4.0,-999.0,-999,-99.99,,,-99.99,,2013-01-11 14:43:00,
2013-01-11 09:53:00,57.0,-99.9,-100.00,East,80,4.0,-999.0,-999,-99.99,,,-99.99,,2013-01-11 14:53:00,
2013-01-11 10:00:00,58.0,-99.9,-100.00,North,360,4.0,-999.0,-999,-99.99,,,-99.99,,2013-01-11 15:00:00,
2013-01-11 10:43:00,58.0,-99.9,-100.00,North,360,4.0,-999.0,-999,-99.99,,,-99.99,,2013-01-11 15:43:00,
2013-01-11 10:53:00,58.0,-99.9,-100.00,North,360,4.0,-999.0,-999,-99.99,,,-99.99,,2013-01-11 15:53:00,
2013-01-11 11:00:00,59.0,-99.9,-100.00,NNE,30,4.0,-999.0,-999,-99.99,,,-99.99,,2013-01-11 16:00:00,
2013-01-11 11:43:00,59.0,-99.9,-100.00,NNE,30,4.0,-999.0,-999,-99.99,,,-99.99,,2013-01-11 16:43:00,
2013-01-11 11:53:00,59.0,-99.9,-100.00,NNE,30,4.0,-999.0,-999,-99.99,,,-99.99,,2013-01-11 16:53:00,
2013-01-11 13:00:00,62.0,-99.9,-100.00,East,80,2.0,-999.0,-999,-99.99,,,-99.99,,2013-01-11 18:00:00,
2013-01-11 13:43:00,62.0,-99.9,-100.00,East,80,2.0,-999.0,-999,-99.99,,,-99.99,,2013-01-11 18:43:00,
2013-01-11 13:53:00,62.0,-99.9,-100.00,East,80,2.0,-999.0,-999,-99.99,,,-99.99,,2013-01-11 18:53:00,
2013-01-11 17:00:00,60.0,-99.9,-100.00,SSE,150,7.0,-999.0,-999,-99.99,,,-99.99,,2013-01-11 22:00:00,
2013-01-11 17:43:00,60.0,-99.9,-100.00,SSE,150,7.0,-999.0,-999,-99.99,,,-99.99,,2013-01-11 22:43:00,
2013-01-11 17:53:00,60.0,-99.9,-100.00,SSE,150,7.0,-999.0,-999,-99.99,,,-99.99,,2013-01-11 22:53:00,
2013-01-11 18:00:00,58.0,-99.9,-100.00,North,0,0.0,-999.0,-999,-99.99,,,-99.99,,2013-01-11 23:00:00,
2013-01-11 18:43:00,58.0,-99.9,-100.00,North,0,0.0,-999.0,-999,-99.99,,,-99.99,,2013-01-11 23:43:00,
2013-01-11 18:54:00,58.0,-99.9,-100.00,North,0,0.0,-999.0,-999,-99.99,,,-99.99,,2013-01-11 23:54:00,
2013-01-11 19:00:00,57.0,-99.9,-100.00,North,0,0.0,-999.0,-999,-99.99,,,-99.99,,2013-01-12 00:00:00,
2013-01-11 19:43:00,57.0,-99.9,-100.00,North,0,0.0,-999.0,-999,-99.99,,,-99.99,,2013-01-12 00:43:00,
2013-01-11 19:53:00,57.0,-99.9,-100.00,North,0,0.0,-999.0,-999,-99.99,,,-99.99,,2013-01-12 00:53:00,
2013-01-11 20:00:00,58.0,-99.9,-100.00,South,180,4.0,-999.0,-999,-99.99,,,-99.99,,2013-01-12 01:00:00,
2013-01-11 20:43:00,58.0,-99.9,-100.00,South,180,4.0,-999.0,-999,-99.99,,,-99.99,,2013-01-12 01:43:00,
2013-01-11 20:53:00,58.0,-99.9,-100.00,South,180,4.0,-999.0,-999,-99.99,,,-99.99,,2013-01-12 01:53:00,
2013-01-11 21:00:00,58.0,-99.9,-100.00,SSW,210,2.0,-999.0,-999,-99.99,,,-99.99,,2013-01-12 02:00:00,
2013-01-11 21:43:00,58.0,-99.9,-100.00,SSW,210,2.0,-999.0,-999,-99.99,,,-99.99,,2013-01-12 02:43:00,
2013-01-11 21:53:00,58.0,-99.9,-100.00,SSW,210,2.0,-999.0,-999,-99.99,,,-99.99,,2013-01-12 02:53:00,
2013-01-11 23:00:00,56.0,-99.9,-100.00,West,280,4.0,-999.0,-999,-99.99,,,-99.99,,2013-01-12 04:00:00,
2013-01-11 23:43:00,56.0,-99.9,-100.00,West,280,4.0,-999.0,-999,-99.99,,,-99.99,,2013-01-12 04:43:00,
2013-01-11 23:53:00,56.0,-99.9,-100.00,West,280,4.0,-999.0,-999,-99.99,,,-99.99,,2013-01-12 04:53:00,